Location: Lima
(44.6384°N, 112.5920°W)
Time: 12:15:03
(UTC+00:00)

M-CUBED/EXP-1 PRIME - Visible Passes

Search period start: 13 April 2024 00:00
Search period end: 23 April 2024 00:00
Orbit: 350 x 435 km, 101.7° (Epoch: 12 April)

Date Brightness Start Highest point End Pass type
(mag) Time Alt. Az. Time Alt. Az. Time Alt. Az.
13 Apr ? 09:22:04 11° N 09:22:04 11° N 09:22:10 10° N visible
15 Apr ? 09:07:21 12° NNE 09:07:21 12° NNE 09:07:43 10° NNE visible
16 Apr ? 09:45:52 15° N 09:45:52 15° N 09:46:30 10° N visible
17 Apr ? 08:51:45 10° NE 08:51:45 10° NE 08:51:51 10° NE visible
17 Apr ? 10:24:08 12° NNW 10:24:08 12° NNW 10:24:25 10° NNW visible
18 Apr ? 09:29:48 18° NNE 09:29:48 18° NNE 09:30:54 10° N visible
19 Apr ? 10:07:36 21° NNW 10:07:36 21° NNW 10:08:43 10° NNW visible
20 Apr ? 09:12:49 15° NE 09:12:49 15° NE 09:14:07 10° NNE visible
20 Apr ? 10:45:10 14° NW 10:45:10 14° NW 10:45:42 10° NW visible
21 Apr ? 09:50:08 29° NNE 09:50:08 29° NNE 09:51:56 10° N visible
22 Apr ? 10:27:14 28° NW 10:27:14 28° NW 10:28:52 10° NNW visible
